Regional Weather Roundup
Issued by NWS Midland/Odessa, TX

Skip options and go directly to product.
Home | Oldest Version | Previous Version | Current Version | All | Text Only | Save Text | Print | Product List | Glossary On

Skip product version selection by date and time.   
202
ASUS44 KMAF 272210
RWRMAF
MIDLAND AREA WEATHER ROUNDUP
NATIONAL WEATHER SERVICE MIDLAND TX
400 PM CST THU NOV 27 2014

...IN SOUTHWEST TEXAS AND SOUTHEAST NEW MEXICO...

CITY           SKY/WX    TMP DP  RH WIND       PRES   REMARKS
ALPINE         SUNNY     67  19  16 S5        30.39S
ANDREWS        FAIR      62  29  28 S10       30.33F
ARTESIA        NOT AVBL
BIG SPRING     SUNNY     64  31  29 S9        30.36F
CARLSBAD       SUNNY     61  30  31 SE13      30.29F
DRYDEN           N/A     66  32  28 E8        30.33F
FORT STOCKTON  SUNNY     67  25  20 SE12      30.31F
GUAD PASS      NOT AVBL
HOBBS          SUNNY     59  28  31 S13       30.32F
MARFA          SUNNY     64  19  17 S7        30.37S
MIDLAND AIRPK  SUNNY     64  31  28 S10       30.34S
MIDLAND INTL   SUNNY     64  30  27 S10       30.33F
ODESSA         SUNNY     63  28  26 S10       30.34F
PECOS          SUNNY     62  29  28 CALM      30.31F
PRESIDIO       FAIR      70  22  16 CALM      30.28F
SEMINOLE       SUNNY     61  29  29 S9        30.33F
SNYDER         SUNNY     57  31  37 S8        30.35F
WINK           SUNNY     64  28  25 SE8       30.31F
$$
...OTHER STATIONS IN TEXAS...

CITY           SKY/WX    TMP DP  RH WIND       PRES   REMARKS
ABILENE        SUNNY     60  31  33 S10       30.37F
AMARILLO       SUNNY     60  30  32 SW17      30.24F
AUSTIN         SUNNY     63  31  30 E6        30.40F
BROWNSVILLE    SUNNY     71  53  52 E9        30.35R
CORPUS CHRISTI MOSUNNY   67  54  63 E16       30.38S
DALLAS FTW     MOSUNNY   56  19  23 CALM      30.42F
DEL RIO        SUNNY     69  36  29 SE9       30.34S
EL PASO        SUNNY     66  21  18 E5        30.30F
HOUSTON INT    SUNNY     66  34  30 CALM      30.41F
LUBBOCK        MOSUNNY   59  30  33 S16       30.30F
SAN ANGELO     SUNNY     66  31  27 SE8       30.36F
SAN ANTONIO    SUNNY     65  32  29 E7        30.39F
WACO           SUNNY     59  24  26 W3        30.42F
WICHITA FALLS  NOT AVBL
$$
...OTHER LOCATIONS IN NEW MEXICO...

CITY           SKY/WX    TMP DP  RH WIND       PRES   REMARKS
ALAMAGORDO     MOSUNNY   66  23  19 SW5       30.31F
ALBUQUERQUE    MOSUNNY   59  22  24 CALM      30.34F
CANNON AFB     SUNNY     64  26  24 SW15      30.26F
CLOVIS         SUNNY     64  28  25 SW18      30.26F
HOLLOMAN AFB   MOSUNNY   65  24  21 NW2       30.30F
ROSWELL        SUNNY     62  30  29 S12       30.28F
RUIDOSO        SUNNY     61  21  21 NW12      30.38F
SANTA FE       SUNNY     59  19  21 SW9       30.35F
TRUTH OR CONSE SUNNY     64  20  18 SE3       30.31F
TUCUMCARI      SUNNY     65  28  24 SW14      30.21F
$$

USA.gov is the U.S. government's official web portal to all federal, state and local government web resources and services.